Regional Weather Roundup
Issued by NWS Cleveland, OH

Home | Current Version | Previous Version | Graphics & Text | Print | Product List | Glossary On
Versions: 1 2 3 4 5 6 7 8 9 10 11 12 13 14 15 16 17 18 19 20 21 22 23 24 25 26 27 28 29 30 31 32 33 34 35 36 37 38 39 40 41 42 43 44 45 46 47 48 49 50
000
ASUS41 KCLE 261000
RWRCLE
OHIO REGIONAL WEATHER ROUNDUP
NATIONAL WEATHER SERVICE WILMINGTON, OH
600 AM EDT SUN MAR 26 2017

NOTE: "FAIR" INDICATES FEW OR NO CLOUDS BELOW 12,000 FEET WITH NO
SIGNIFICANT WEATHER AND/OR OBSTRUCTIONS TO VISIBILITY.

OHZ001>008-015>018-024>027-034-035-043-044-261100-
   NORTHWEST OHIO

CITY           SKY/WX    TMP DP  RH WIND       PRES   REMARKS
DEFIANCE       MOCLDY    39  36  89 NE9       30.00F
FINDLAY        FAIR      42  37  82 VRB6      29.99F
TOLEDO EXPRESS CLOUDY    38  36  92 NE9       30.02F
TOLEDO EXEC    CLOUDY    39  37  92 N7        30.06R
LIMA           MOCLDY    43  40  89 NE3       29.99S
$$

OHZ009>014-019>023-028>033-038-089-261100-
   NORTHEAST OHIO

CITY           SKY/WX    TMP DP  RH WIND       PRES   REMARKS
CLE-HOPKINS    MOCLDY    50  42  74 SE5       30.03F
CLE-LAKEFRONT  CLOUDY    40  38  93 NE10      30.01F
CUY CO. ARPT   NOT AVBL
LORAIN-ELYRIA  FAIR      42  37  82 E6        30.00F
ASHTABULA      MOCLDY    41  39  93 E3        30.07F
AKRON-CANTON   FAIR      58  49  72 SE9       30.03S
WOOSTER        NOT AVBL
MANSFIELD      FAIR      58  50  75 SE8       29.99F
YOUNGSTOWN     CLOUDY    55  48  77 E12       30.07F
$$

OHZ042-051>053-060>062-070>072-077>081-261100-
  SOUTHWEST OHIO

CITY           SKY/WX    TMP DP  RH WIND       PRES   REMARKS
CINC-COVINGTON LGT RAIN  58  56  93 S6        29.98R
CINC-LUNKEN    LGT RAIN  59  57  93 S6        29.99S
HAMILTON       LGT RAIN  60  56  86 CALM      29.99S
DAYTON         NOT AVBL
WRIGHT-PAT AFB MOCLDY    57  55  91 SW3       29.97F
DAYTON GENERAL FAIR      60  55  83 SW5       29.97S
WILMINGTON     FAIR      55  49  80 SW3       29.97F
$$

OHZ036-037-039>041-045>050-054>059-063>069-073>076-082>088-261100-
  CENTRAL AND SOUTHEAST OHIO

CITY           SKY/WX    TMP DP  RH WIND       PRES   REMARKS
COLUMBUS       MOCLDY    62  49  62 S6        29.97S
OSU AIRPORT    FAIR      61  50  67 SW8       29.97S
BOLTON FIELD   NOT AVBL
RICKENBACK AFB NOT AVBL
NEWARK         MOCLDY    52  47  83 CALM      29.98S
MARION         MOCLDY    49  44  83 NW8       29.99R
LANCASTER      CLOUDY    63  49  60 S5        29.98S
ZANESVILLE     FAIR      61  48  62 SE7       30.00F
NEW PHILLY     FAIR      60  50  69 SE8       30.02F
$$




USA.gov is the U.S. government's official web portal to all federal, state and local government web resources and services.